CCSDS_OMM_VERS = 2.0 CREATION_DATE = ORIGINATOR = OBJECT_NAME = INTELSAT 902 (IS-902) OBJECT_ID = 2001-039A CENTER_NAME = EARTH REF_FRAME = TEME TIME_SYSTEM = UTC MEAN_ELEMENT_THEORY = SGP/SGP4 EPOCH = 2026-09-12T06:49:29.999136 MEAN_MOTION = 1.00272456 ECCENTRICITY = .00040716 INCLINATION = 6.3307 RA_OF_ASC_NODE = 70.6791 ARG_OF_PERICENTER = 100.7704 MEAN_ANOMALY = 232.1069 EPHEMERIS_TYPE = 0 CLASSIFICATION_TYPE = U NORAD_CAT_ID = 26900 ELEMENT_SET_NO = 999 REV_AT_EPOCH = 9156 BSTAR = 0 MEAN_MOTION_DOT = -.29500E-5 MEAN_MOTION_DDOT = 0 CCSDS_OMM_VERS = 2.0 CREATION_DATE = ORIGINATOR = OBJECT_NAME = INTELSAT 904 (IS-904) OBJECT_ID = 2002-007A CENTER_NAME = EARTH REF_FRAME = TEME TIME_SYSTEM = UTC MEAN_ELEMENT_THEORY = SGP/SGP4 EPOCH = 2026-09-11T20:38:52.910304 MEAN_MOTION = 1.0027066 ECCENTRICITY = .0002984 INCLINATION = 7.1312 RA_OF_ASC_NODE = 68.1081 ARG_OF_PERICENTER = 103.4307 MEAN_ANOMALY = 97.5744 EPHEMERIS_TYPE = 0 CLASSIFICATION_TYPE = U NORAD_CAT_ID = 27380 ELEMENT_SET_NO = 999 REV_AT_EPOCH = 5263 BSTAR = 0 MEAN_MOTION_DOT = -.23800E-5 MEAN_MOTION_DDOT = 0 CCSDS_OMM_VERS = 2.0 CREATION_DATE = ORIGINATOR = OBJECT_NAME = DIRECTV 5 (TEMPO 1) OBJECT_ID = 2002-023A CENTER_NAME = EARTH REF_FRAME = TEME TIME_SYSTEM = UTC MEAN_ELEMENT_THEORY = SGP/SGP4 EPOCH = 2026-09-12T03:06:58.836096 MEAN_MOTION = 1.00272484 ECCENTRICITY = .00032126 INCLINATION = 5.0943 RA_OF_ASC_NODE = 74.1827 ARG_OF_PERICENTER = 106.5054 MEAN_ANOMALY = 107.1066 EPHEMERIS_TYPE = 0 CLASSIFICATION_TYPE = U NORAD_CAT_ID = 27426 ELEMENT_SET_NO = 999 REV_AT_EPOCH = 8899 BSTAR = 0 MEAN_MOTION_DOT = -.70000E-6 MEAN_MOTION_DDOT = 0 CCSDS_OMM_VERS = 2.0 CREATION_DATE = ORIGINATOR = OBJECT_NAME = INTELSAT 905 (IS-905) OBJECT_ID = 2002-027A CENTER_NAME = EARTH REF_FRAME = TEME TIME_SYSTEM = UTC MEAN_ELEMENT_THEORY = SGP/SGP4 EPOCH = 2026-09-12T02:59:14.577792 MEAN_MOTION = 1.00271565 ECCENTRICITY = .00030923 INCLINATION = 6.9664 RA_OF_ASC_NODE = 68.7152 ARG_OF_PERICENTER = 130.3969 MEAN_ANOMALY = 59.6424 EPHEMERIS_TYPE = 0 CLASSIFICATION_TYPE = U NORAD_CAT_ID = 27438 ELEMENT_SET_NO = 999 REV_AT_EPOCH = 5223 BSTAR = 0 MEAN_MOTION_DOT = .82000E-6 MEAN_MOTION_DDOT = 0 CCSDS_OMM_VERS = 2.0 CREATION_DATE = ORIGINATOR = OBJECT_NAME = GALAXY 3C (G-3C) OBJECT_ID = 2002-030A CENTER_NAME = EARTH REF_FRAME = TEME TIME_SYSTEM = UTC MEAN_ELEMENT_THEORY = SGP/SGP4 EPOCH = 2026-09-12T03:11:20.916672 MEAN_MOTION = 1.00271855 ECCENTRICITY = .00014301 INCLINATION = 3.9595 RA_OF_ASC_NODE = 76.8674 ARG_OF_PERICENTER = 43.8669 MEAN_ANOMALY = 183.3973 EPHEMERIS_TYPE = 0 CLASSIFICATION_TYPE = U NORAD_CAT_ID = 27445 ELEMENT_SET_NO = 999 REV_AT_EPOCH = 4736 BSTAR = 0 MEAN_MOTION_DOT = -.16600E-5 MEAN_MOTION_DDOT = 0 CCSDS_OMM_VERS = 2.0 CREATION_DATE = ORIGINATOR = OBJECT_NAME = INTELSAT 906 (IS-906) OBJECT_ID = 2002-041A CENTER_NAME = EARTH REF_FRAME = TEME TIME_SYSTEM = UTC MEAN_ELEMENT_THEORY = SGP/SGP4 EPOCH = 2026-09-12T02:14:03.910848 MEAN_MOTION = 1.00272748 ECCENTRICITY = .00028675 INCLINATION = 6.0168 RA_OF_ASC_NODE = 71.8117 ARG_OF_PERICENTER = 115.9318 MEAN_ANOMALY = 261.0389 EPHEMERIS_TYPE = 0 CLASSIFICATION_TYPE = U NORAD_CAT_ID = 27513 ELEMENT_SET_NO = 999 REV_AT_EPOCH = 8790 BSTAR = 0 MEAN_MOTION_DOT = 0 MEAN_MOTION_DDOT = 0 CCSDS_OMM_VERS = 2.0 CREATION_DATE = ORIGINATOR = OBJECT_NAME = GALAXY 13 (HORIZONS-1) OBJECT_ID = 2003-044A CENTER_NAME = EARTH REF_FRAME = TEME TIME_SYSTEM = UTC MEAN_ELEMENT_THEORY = SGP/SGP4 EPOCH = 2026-09-12T07:44:26.494368 MEAN_MOTION = 1.00273815 ECCENTRICITY = .0001956 INCLINATION = 1.6376 RA_OF_ASC_NODE = 82.6222 ARG_OF_PERICENTER = 92.8866 MEAN_ANOMALY = 141.9437 EPHEMERIS_TYPE = 0 CLASSIFICATION_TYPE = U NORAD_CAT_ID = 27954 ELEMENT_SET_NO = 999 REV_AT_EPOCH = 4744 BSTAR = 0 MEAN_MOTION_DOT = .11900E-5 MEAN_MOTION_DDOT = 0 CCSDS_OMM_VERS = 2.0 CREATION_DATE = ORIGINATOR = OBJECT_NAME = INTELSAT 10-02 OBJECT_ID = 2004-022A CENTER_NAME = EARTH REF_FRAME = TEME TIME_SYSTEM = UTC MEAN_ELEMENT_THEORY = SGP/SGP4 EPOCH = 2026-09-12T07:03:28.659744 MEAN_MOTION = 1.00271087 ECCENTRICITY = .00001198 INCLINATION = 0.045 RA_OF_ASC_NODE = 262.7124 ARG_OF_PERICENTER = 54.6562 MEAN_ANOMALY = 138.7996 EPHEMERIS_TYPE = 0 CLASSIFICATION_TYPE = U NORAD_CAT_ID = 28358 ELEMENT_SET_NO = 999 REV_AT_EPOCH = 8142 BSTAR = 0 MEAN_MOTION_DOT = -.26000E-6 MEAN_MOTION_DDOT = 0 CCSDS_OMM_VERS = 2.0 CREATION_DATE = ORIGINATOR = OBJECT_NAME = DIRECTV 8 OBJECT_ID = 2005-019A CENTER_NAME = EARTH REF_FRAME = TEME TIME_SYSTEM = UTC MEAN_ELEMENT_THEORY = SGP/SGP4 EPOCH = 2026-09-12T06:29:46.890240 MEAN_MOTION = 1.00272003 ECCENTRICITY = .00029218 INCLINATION = 0.0051 RA_OF_ASC_NODE = 146.997 ARG_OF_PERICENTER = 27.327 MEAN_ANOMALY = 155.3449 EPHEMERIS_TYPE = 0 CLASSIFICATION_TYPE = U NORAD_CAT_ID = 28659 ELEMENT_SET_NO = 999 REV_AT_EPOCH = 7794 BSTAR = 0 MEAN_MOTION_DOT = -.13000E-6 MEAN_MOTION_DDOT = 0 CCSDS_OMM_VERS = 2.0 CREATION_DATE = ORIGINATOR = OBJECT_NAME = GALAXY 28 (G-28) OBJECT_ID = 2005-022A CENTER_NAME = EARTH REF_FRAME = TEME TIME_SYSTEM = UTC MEAN_ELEMENT_THEORY = SGP/SGP4 EPOCH = 2026-09-12T06:55:59.377152 MEAN_MOTION = 1.00272242 ECCENTRICITY = .00018624 INCLINATION = 3.5164 RA_OF_ASC_NODE = 77.7982 ARG_OF_PERICENTER = 100.4848 MEAN_ANOMALY = 249.9339 EPHEMERIS_TYPE = 0 CLASSIFICATION_TYPE = U NORAD_CAT_ID = 28702 ELEMENT_SET_NO = 999 REV_AT_EPOCH = 5284 BSTAR = 0 MEAN_MOTION_DOT = -.21300E-5 MEAN_MOTION_DDOT = 0 CCSDS_OMM_VERS = 2.0 CREATION_DATE = ORIGINATOR = OBJECT_NAME = GALAXY 16 (G-16) OBJECT_ID = 2006-023A CENTER_NAME = EARTH REF_FRAME = TEME TIME_SYSTEM = UTC MEAN_ELEMENT_THEORY = SGP/SGP4 EPOCH = 2026-09-12T04:52:48.688320 MEAN_MOTION = 1.00271848 ECCENTRICITY = .00026047 INCLINATION = 0.0131 RA_OF_ASC_NODE = 161.0306 ARG_OF_PERICENTER = 8.7865 MEAN_ANOMALY = 155.5992 EPHEMERIS_TYPE = 0 CLASSIFICATION_TYPE = U NORAD_CAT_ID = 29236 ELEMENT_SET_NO = 999 REV_AT_EPOCH = 7384 BSTAR = 0 MEAN_MOTION_DOT = -.14200E-5 MEAN_MOTION_DDOT = 0 CCSDS_OMM_VERS = 2.0 CREATION_DATE = ORIGINATOR = OBJECT_NAME = DIRECTV 9S OBJECT_ID = 2006-043A CENTER_NAME = EARTH REF_FRAME = TEME TIME_SYSTEM = UTC MEAN_ELEMENT_THEORY = SGP/SGP4 EPOCH = 2026-09-12T06:27:38.778912 MEAN_MOTION = 0.9909499 ECCENTRICITY = .00060448 INCLINATION = 2.6411 RA_OF_ASC_NODE = 79.7592 ARG_OF_PERICENTER = 195.7276 MEAN_ANOMALY = 35.9132 EPHEMERIS_TYPE = 0 CLASSIFICATION_TYPE = U NORAD_CAT_ID = 29494 ELEMENT_SET_NO = 999 REV_AT_EPOCH = 5225 BSTAR = 0 MEAN_MOTION_DOT = .55000E-6 MEAN_MOTION_DDOT = 0 CCSDS_OMM_VERS = 2.0 CREATION_DATE = ORIGINATOR = OBJECT_NAME = GALAXY 17 (G-17) OBJECT_ID = 2007-016B CENTER_NAME = EARTH REF_FRAME = TEME TIME_SYSTEM = UTC MEAN_ELEMENT_THEORY = SGP/SGP4 EPOCH = 2026-09-12T06:39:30.955968 MEAN_MOTION = 1.00271794 ECCENTRICITY = .00030327 INCLINATION = 3.1858 RA_OF_ASC_NODE = 78.7382 ARG_OF_PERICENTER = 120.017 MEAN_ANOMALY = 167.4091 EPHEMERIS_TYPE = 0 CLASSIFICATION_TYPE = U NORAD_CAT_ID = 31307 ELEMENT_SET_NO = 999 REV_AT_EPOCH = 7067 BSTAR = 0 MEAN_MOTION_DOT = -.21900E-5 MEAN_MOTION_DDOT = 0 CCSDS_OMM_VERS = 2.0 CREATION_DATE = ORIGINATOR = OBJECT_NAME = INTELSAT 11 (IS-11) OBJECT_ID = 2007-044B CENTER_NAME = EARTH REF_FRAME = TEME TIME_SYSTEM = UTC MEAN_ELEMENT_THEORY = SGP/SGP4 EPOCH = 2026-09-12T00:42:42.670656 MEAN_MOTION = 0.9904763 ECCENTRICITY = .00073169 INCLINATION = 3.7856 RA_OF_ASC_NODE = 77.5491 ARG_OF_PERICENTER = 127.4501 MEAN_ANOMALY = 260.5293 EPHEMERIS_TYPE = 0 CLASSIFICATION_TYPE = U NORAD_CAT_ID = 32253 ELEMENT_SET_NO = 999 REV_AT_EPOCH = 6931 BSTAR = 0 MEAN_MOTION_DOT = -.12000E-5 MEAN_MOTION_DDOT = 0 CCSDS_OMM_VERS = 2.0 CREATION_DATE = ORIGINATOR = OBJECT_NAME = HORIZONS-2 OBJECT_ID = 2007-063B CENTER_NAME = EARTH REF_FRAME = TEME TIME_SYSTEM = UTC MEAN_ELEMENT_THEORY = SGP/SGP4 EPOCH = 2026-09-12T06:42:38.157120 MEAN_MOTION = 1.00273084 ECCENTRICITY = .00013552 INCLINATION = 2.8207 RA_OF_ASC_NODE = 79.482 ARG_OF_PERICENTER = 90.8607 MEAN_ANOMALY = 207.8152 EPHEMERIS_TYPE = 0 CLASSIFICATION_TYPE = U NORAD_CAT_ID = 32388 ELEMENT_SET_NO = 999 REV_AT_EPOCH = 6868 BSTAR = 0 MEAN_MOTION_DOT = -.26700E-5 MEAN_MOTION_DDOT = 0 CCSDS_OMM_VERS = 2.0 CREATION_DATE = ORIGINATOR = OBJECT_NAME = DIRECTV 11 OBJECT_ID = 2008-013A CENTER_NAME = EARTH REF_FRAME = TEME TIME_SYSTEM = UTC MEAN_ELEMENT_THEORY = SGP/SGP4 EPOCH = 2026-09-12T04:52:48.688320 MEAN_MOTION = 1.00271786 ECCENTRICITY = .00001513 INCLINATION = 0.0145 RA_OF_ASC_NODE = 335.0698 ARG_OF_PERICENTER = 85.1302 MEAN_ANOMALY = 265.0303 EPHEMERIS_TYPE = 0 CLASSIFICATION_TYPE = U NORAD_CAT_ID = 32729 ELEMENT_SET_NO = 999 REV_AT_EPOCH = 4646 BSTAR = 0 MEAN_MOTION_DOT = -.14100E-5 MEAN_MOTION_DDOT = 0 CCSDS_OMM_VERS = 2.0 CREATION_DATE = ORIGINATOR = OBJECT_NAME = GALAXY 18 (G-18) OBJECT_ID = 2008-024A CENTER_NAME = EARTH REF_FRAME = TEME TIME_SYSTEM = UTC MEAN_ELEMENT_THEORY = SGP/SGP4 EPOCH = 2026-09-12T06:28:39.497376 MEAN_MOTION = 1.00272108 ECCENTRICITY = .00029948 INCLINATION = 0.0024 RA_OF_ASC_NODE = 143.9536 ARG_OF_PERICENTER = 34.4362 MEAN_ANOMALY = 147.0512 EPHEMERIS_TYPE = 0 CLASSIFICATION_TYPE = U NORAD_CAT_ID = 32951 ELEMENT_SET_NO = 999 REV_AT_EPOCH = 4672 BSTAR = 0 MEAN_MOTION_DOT = .10000E-6 MEAN_MOTION_DDOT = 0 CCSDS_OMM_VERS = 2.0 CREATION_DATE = ORIGINATOR = OBJECT_NAME = GALAXY 19 (G-19) OBJECT_ID = 2008-045A CENTER_NAME = EARTH REF_FRAME = TEME TIME_SYSTEM = UTC MEAN_ELEMENT_THEORY = SGP/SGP4 EPOCH = 2026-09-12T04:53:26.128032 MEAN_MOTION = 1.00272225 ECCENTRICITY = .00024365 INCLINATION = 0.0381 RA_OF_ASC_NODE = 247.8273 ARG_OF_PERICENTER = 281.0695 MEAN_ANOMALY = 158.6758 EPHEMERIS_TYPE = 0 CLASSIFICATION_TYPE = U NORAD_CAT_ID = 33376 ELEMENT_SET_NO = 999 REV_AT_EPOCH = 6577 BSTAR = 0 MEAN_MOTION_DOT = -.15400E-5 MEAN_MOTION_DDOT = 0 CCSDS_OMM_VERS = 2.0 CREATION_DATE = ORIGINATOR = OBJECT_NAME = FM-5 OBJECT_ID = 2009-034A CENTER_NAME = EARTH REF_FRAME = TEME TIME_SYSTEM = UTC MEAN_ELEMENT_THEORY = SGP/SGP4 EPOCH = 2026-09-12T01:31:15.515328 MEAN_MOTION = 1.00272692 ECCENTRICITY = .00006942 INCLINATION = 0.0439 RA_OF_ASC_NODE = 269.7388 ARG_OF_PERICENTER = 141.7504 MEAN_ANOMALY = 236.25 EPHEMERIS_TYPE = 0 CLASSIFICATION_TYPE = U NORAD_CAT_ID = 35493 ELEMENT_SET_NO = 999 REV_AT_EPOCH = 4751 BSTAR = 0 MEAN_MOTION_DOT = -.21600E-5 MEAN_MOTION_DDOT = 0 CCSDS_OMM_VERS = 2.0 CREATION_DATE = ORIGINATOR = OBJECT_NAME = INTELSAT 14 (IS-14) OBJECT_ID = 2009-064A CENTER_NAME = EARTH REF_FRAME = TEME TIME_SYSTEM = UTC MEAN_ELEMENT_THEORY = SGP/SGP4 EPOCH = 2026-09-12T06:50:52.367712 MEAN_MOTION = 1.00272145 ECCENTRICITY = .00023689 INCLINATION = 0.1344 RA_OF_ASC_NODE = 84.7729 ARG_OF_PERICENTER = 84.2729 MEAN_ANOMALY = 239.9741 EPHEMERIS_TYPE = 0 CLASSIFICATION_TYPE = U NORAD_CAT_ID = 36097 ELEMENT_SET_NO = 999 REV_AT_EPOCH = 6147 BSTAR = 0 MEAN_MOTION_DOT = -.28800E-5 MEAN_MOTION_DDOT = 0 CCSDS_OMM_VERS = 2.0 CREATION_DATE = ORIGINATOR = OBJECT_NAME = INTELSAT 15 (IS-15) OBJECT_ID = 2009-067A CENTER_NAME = EARTH REF_FRAME = TEME TIME_SYSTEM = UTC MEAN_ELEMENT_THEORY = SGP/SGP4 EPOCH = 2026-09-12T03:22:09.729696 MEAN_MOTION = 1.00269548 ECCENTRICITY = .00022789 INCLINATION = 0.019 RA_OF_ASC_NODE = 165.7416 ARG_OF_PERICENTER = 9.7281 MEAN_ANOMALY = 311.366 EPHEMERIS_TYPE = 0 CLASSIFICATION_TYPE = U NORAD_CAT_ID = 36106 ELEMENT_SET_NO = 999 REV_AT_EPOCH = 4210 BSTAR = 0 MEAN_MOTION_DOT = 0 MEAN_MOTION_DDOT = 0 CCSDS_OMM_VERS = 2.0 CREATION_DATE = ORIGINATOR = OBJECT_NAME = DIRECTV 12 OBJECT_ID = 2009-075A CENTER_NAME = EARTH REF_FRAME = TEME TIME_SYSTEM = UTC MEAN_ELEMENT_THEORY = SGP/SGP4 EPOCH = 2026-09-12T04:51:48.783744 MEAN_MOTION = 1.00271707 ECCENTRICITY = .00004102 INCLINATION = 0.0432 RA_OF_ASC_NODE = 359.9449 ARG_OF_PERICENTER = 110.7635 MEAN_ANOMALY = 210.7332 EPHEMERIS_TYPE = 0 CLASSIFICATION_TYPE = U NORAD_CAT_ID = 36131 ELEMENT_SET_NO = 999 REV_AT_EPOCH = 4742 BSTAR = 0 MEAN_MOTION_DOT = -.11800E-5 MEAN_MOTION_DDOT = 0 CCSDS_OMM_VERS = 2.0 CREATION_DATE = ORIGINATOR = OBJECT_NAME = INTELSAT 16 (IS-16) OBJECT_ID = 2010-006A CENTER_NAME = EARTH REF_FRAME = TEME TIME_SYSTEM = UTC MEAN_ELEMENT_THEORY = SGP/SGP4 EPOCH = 2026-09-10T03:10:38.764704 MEAN_MOTION = 1.00277212 ECCENTRICITY = .00024289 INCLINATION = 0.0475 RA_OF_ASC_NODE = 283.5929 ARG_OF_PERICENTER = 255.88 MEAN_ANOMALY = 141.1811 EPHEMERIS_TYPE = 0 CLASSIFICATION_TYPE = U NORAD_CAT_ID = 36397 ELEMENT_SET_NO = 999 REV_AT_EPOCH = 6050 BSTAR = 0 MEAN_MOTION_DOT = -.26600E-5 MEAN_MOTION_DDOT = 0 CCSDS_OMM_VERS = 2.0 CREATION_DATE = ORIGINATOR = OBJECT_NAME = XM-5 OBJECT_ID = 2010-053A CENTER_NAME = EARTH REF_FRAME = TEME TIME_SYSTEM = UTC MEAN_ELEMENT_THEORY = SGP/SGP4 EPOCH = 2026-09-12T06:30:54.282240 MEAN_MOTION = 1.00272277 ECCENTRICITY = .00003468 INCLINATION = 0.07 RA_OF_ASC_NODE = 272.1984 ARG_OF_PERICENTER = 255.1763 MEAN_ANOMALY = 166.4471 EPHEMERIS_TYPE = 0 CLASSIFICATION_TYPE = U NORAD_CAT_ID = 37185 ELEMENT_SET_NO = 999 REV_AT_EPOCH = 5835 BSTAR = 0 MEAN_MOTION_DOT = -.38000E-6 MEAN_MOTION_DDOT = 0 CCSDS_OMM_VERS = 2.0 CREATION_DATE = ORIGINATOR = OBJECT_NAME = INTELSAT 17 (IS-17) OBJECT_ID = 2010-065B CENTER_NAME = EARTH REF_FRAME = TEME TIME_SYSTEM = UTC MEAN_ELEMENT_THEORY = SGP/SGP4 EPOCH = 2026-09-12T03:57:09.025920 MEAN_MOTION = 1.00271757 ECCENTRICITY = .00025764 INCLINATION = 0.0045 RA_OF_ASC_NODE = 163.3202 ARG_OF_PERICENTER = 15.156 MEAN_ANOMALY = 297.9902 EPHEMERIS_TYPE = 0 CLASSIFICATION_TYPE = U NORAD_CAT_ID = 37238 ELEMENT_SET_NO = 999 REV_AT_EPOCH = 5412 BSTAR = 0 MEAN_MOTION_DOT = -.17000E-6 MEAN_MOTION_DDOT = 0 CCSDS_OMM_VERS = 2.0 CREATION_DATE = ORIGINATOR = OBJECT_NAME = INTELSAT 28 (IS-28) OBJECT_ID = 2011-016A CENTER_NAME = EARTH REF_FRAME = TEME TIME_SYSTEM = UTC MEAN_ELEMENT_THEORY = SGP/SGP4 EPOCH = 2026-09-12T06:54:37.008576 MEAN_MOTION = 1.00273698 ECCENTRICITY = .00035353 INCLINATION = 2.0252 RA_OF_ASC_NODE = 81.4513 ARG_OF_PERICENTER = 93.9006 MEAN_ANOMALY = 247.9091 EPHEMERIS_TYPE = 0 CLASSIFICATION_TYPE = U NORAD_CAT_ID = 37392 ELEMENT_SET_NO = 999 REV_AT_EPOCH = 5415 BSTAR = 0 MEAN_MOTION_DOT = -.23800E-5 MEAN_MOTION_DDOT = 0 CCSDS_OMM_VERS = 2.0 CREATION_DATE = ORIGINATOR = OBJECT_NAME = INTELSAT 18 (IS-18) OBJECT_ID = 2011-056A CENTER_NAME = EARTH REF_FRAME = TEME TIME_SYSTEM = UTC MEAN_ELEMENT_THEORY = SGP/SGP4 EPOCH = 2026-09-12T06:02:38.660640 MEAN_MOTION = 1.00274025 ECCENTRICITY = .00019998 INCLINATION = 0.0447 RA_OF_ASC_NODE = 267.0885 ARG_OF_PERICENTER = 274.3421 MEAN_ANOMALY = 80.5009 EPHEMERIS_TYPE = 0 CLASSIFICATION_TYPE = U NORAD_CAT_ID = 37834 ELEMENT_SET_NO = 999 REV_AT_EPOCH = 5468 BSTAR = 0 MEAN_MOTION_DOT = .39000E-6 MEAN_MOTION_DDOT = 0 CCSDS_OMM_VERS = 2.0 CREATION_DATE = ORIGINATOR = OBJECT_NAME = INTELSAT 22 (IS-22) OBJECT_ID = 2012-011A CENTER_NAME = EARTH REF_FRAME = TEME TIME_SYSTEM = UTC MEAN_ELEMENT_THEORY = SGP/SGP4 EPOCH = 2026-09-12T04:55:21.489312 MEAN_MOTION = 1.00271774 ECCENTRICITY = .00017398 INCLINATION = 0.0233 RA_OF_ASC_NODE = 115.8839 ARG_OF_PERICENTER = 54.9321 MEAN_ANOMALY = 326.3353 EPHEMERIS_TYPE = 0 CLASSIFICATION_TYPE = U NORAD_CAT_ID = 38098 ELEMENT_SET_NO = 999 REV_AT_EPOCH = 806 BSTAR = 0 MEAN_MOTION_DOT = -.73000E-6 MEAN_MOTION_DDOT = 0 CCSDS_OMM_VERS = 2.0 CREATION_DATE = ORIGINATOR = OBJECT_NAME = INTELSAT 19 (IS-19) OBJECT_ID = 2012-030A CENTER_NAME = EARTH REF_FRAME = TEME TIME_SYSTEM = UTC MEAN_ELEMENT_THEORY = SGP/SGP4 EPOCH = 2026-09-12T08:08:38.611392 MEAN_MOTION = 1.00270275 ECCENTRICITY = .00030751 INCLINATION = 0.0188 RA_OF_ASC_NODE = 164.9354 ARG_OF_PERICENTER = 12.5546 MEAN_ANOMALY = 102.0177 EPHEMERIS_TYPE = 0 CLASSIFICATION_TYPE = U NORAD_CAT_ID = 38356 ELEMENT_SET_NO = 999 REV_AT_EPOCH = 5132 BSTAR = 0 MEAN_MOTION_DOT = 0 MEAN_MOTION_DDOT = 0 CCSDS_OMM_VERS = 2.0 CREATION_DATE = ORIGINATOR = OBJECT_NAME = INTELSAT 20 (IS-20) OBJECT_ID = 2012-043A CENTER_NAME = EARTH REF_FRAME = TEME TIME_SYSTEM = UTC MEAN_ELEMENT_THEORY = SGP/SGP4 EPOCH = 2026-09-12T04:55:21.489312 MEAN_MOTION = 1.00271259 ECCENTRICITY = .00014801 INCLINATION = 0.0165 RA_OF_ASC_NODE = 146.4484 ARG_OF_PERICENTER = 19.7882 MEAN_ANOMALY = 327.3268 EPHEMERIS_TYPE = 0 CLASSIFICATION_TYPE = U NORAD_CAT_ID = 38740 ELEMENT_SET_NO = 999 REV_AT_EPOCH = 5162 BSTAR = 0 MEAN_MOTION_DOT = -.39000E-6 MEAN_MOTION_DDOT = 0 CCSDS_OMM_VERS = 2.0 CREATION_DATE = ORIGINATOR = OBJECT_NAME = INTELSAT 21 (IS-21) OBJECT_ID = 2012-045A CENTER_NAME = EARTH REF_FRAME = TEME TIME_SYSTEM = UTC MEAN_ELEMENT_THEORY = SGP/SGP4 EPOCH = 2026-09-12T06:47:07.726848 MEAN_MOTION = 1.00269997 ECCENTRICITY = .00023924 INCLINATION = 0.0222 RA_OF_ASC_NODE = 176.9513 ARG_OF_PERICENTER = 10.3833 MEAN_ANOMALY = 207.7416 EPHEMERIS_TYPE = 0 CLASSIFICATION_TYPE = U NORAD_CAT_ID = 38749 ELEMENT_SET_NO = 999 REV_AT_EPOCH = 5139 BSTAR = 0 MEAN_MOTION_DOT = 0 MEAN_MOTION_DDOT = 0 CCSDS_OMM_VERS = 2.0 CREATION_DATE = ORIGINATOR = OBJECT_NAME = INTELSAT 23 (IS-23) OBJECT_ID = 2012-057A CENTER_NAME = EARTH REF_FRAME = TEME TIME_SYSTEM = UTC MEAN_ELEMENT_THEORY = SGP/SGP4 EPOCH = 2026-09-12T05:05:54.930912 MEAN_MOTION = 1.00268194 ECCENTRICITY = .00017864 INCLINATION = 0.0371 RA_OF_ASC_NODE = 274.6457 ARG_OF_PERICENTER = 332.9122 MEAN_ANOMALY = 127.1239 EPHEMERIS_TYPE = 0 CLASSIFICATION_TYPE = U NORAD_CAT_ID = 38867 ELEMENT_SET_NO = 999 REV_AT_EPOCH = 5082 BSTAR = 0 MEAN_MOTION_DOT = -.30000E-5 MEAN_MOTION_DDOT = 0 CCSDS_OMM_VERS = 2.0 CREATION_DATE = ORIGINATOR = OBJECT_NAME = FM-6 OBJECT_ID = 2013-058A CENTER_NAME = EARTH REF_FRAME = TEME TIME_SYSTEM = UTC MEAN_ELEMENT_THEORY = SGP/SGP4 EPOCH = 2026-09-12T03:05:14.004384 MEAN_MOTION = 1.00273543 ECCENTRICITY = .00008675 INCLINATION = 0.0275 RA_OF_ASC_NODE = 128.968 ARG_OF_PERICENTER = 132.4911 MEAN_ANOMALY = 19.5877 EPHEMERIS_TYPE = 0 CLASSIFICATION_TYPE = U NORAD_CAT_ID = 39360 ELEMENT_SET_NO = 999 REV_AT_EPOCH = 4694 BSTAR = 0 MEAN_MOTION_DOT = 0 MEAN_MOTION_DDOT = 0 CCSDS_OMM_VERS = 2.0 CREATION_DATE = ORIGINATOR = OBJECT_NAME = INTELSAT 30 (IS-30) OBJECT_ID = 2014-062A CENTER_NAME = EARTH REF_FRAME = TEME TIME_SYSTEM = UTC MEAN_ELEMENT_THEORY = SGP/SGP4 EPOCH = 2026-09-12T04:53:56.080320 MEAN_MOTION = 1.00272978 ECCENTRICITY = .00015455 INCLINATION = 0.0158 RA_OF_ASC_NODE = 92.0614 ARG_OF_PERICENTER = 311.8865 MEAN_ANOMALY = 285.7043 EPHEMERIS_TYPE = 0 CLASSIFICATION_TYPE = U NORAD_CAT_ID = 40271 ELEMENT_SET_NO = 999 REV_AT_EPOCH = 766 BSTAR = 0 MEAN_MOTION_DOT = -.16600E-5 MEAN_MOTION_DDOT = 0 CCSDS_OMM_VERS = 2.0 CREATION_DATE = ORIGINATOR = OBJECT_NAME = DIRECTV 14 OBJECT_ID = 2014-078B CENTER_NAME = EARTH REF_FRAME = TEME TIME_SYSTEM = UTC MEAN_ELEMENT_THEORY = SGP/SGP4 EPOCH = 2026-09-12T04:52:48.688320 MEAN_MOTION = 1.00268393 ECCENTRICITY = .00006353 INCLINATION = 0.0171 RA_OF_ASC_NODE = 135.252 ARG_OF_PERICENTER = 303.309 MEAN_ANOMALY = 246.6166 EPHEMERIS_TYPE = 0 CLASSIFICATION_TYPE = U NORAD_CAT_ID = 40333 ELEMENT_SET_NO = 999 REV_AT_EPOCH = 4291 BSTAR = 0 MEAN_MOTION_DOT = 0 MEAN_MOTION_DDOT = 0 CCSDS_OMM_VERS = 2.0 CREATION_DATE = ORIGINATOR = OBJECT_NAME = DIRECTV 15 OBJECT_ID = 2015-026A CENTER_NAME = EARTH REF_FRAME = TEME TIME_SYSTEM = UTC MEAN_ELEMENT_THEORY = SGP/SGP4 EPOCH = 2026-09-12T01:26:30.969888 MEAN_MOTION = 1.00273413 ECCENTRICITY = .00003566 INCLINATION = 0.0155 RA_OF_ASC_NODE = 111.1051 ARG_OF_PERICENTER = 23.8027 MEAN_ANOMALY = 134.9299 EPHEMERIS_TYPE = 0 CLASSIFICATION_TYPE = U NORAD_CAT_ID = 40663 ELEMENT_SET_NO = 999 REV_AT_EPOCH = 4133 BSTAR = 0 MEAN_MOTION_DOT = -.11800E-5 MEAN_MOTION_DDOT = 0 CCSDS_OMM_VERS = 2.0 CREATION_DATE = ORIGINATOR = OBJECT_NAME = SKY MEXICO-1 OBJECT_ID = 2015-026B CENTER_NAME = EARTH REF_FRAME = TEME TIME_SYSTEM = UTC MEAN_ELEMENT_THEORY = SGP/SGP4 EPOCH = 2026-09-12T06:41:15.789408 MEAN_MOTION = 1.00272633 ECCENTRICITY = .00019417 INCLINATION = 0.0211 RA_OF_ASC_NODE = 125.1452 ARG_OF_PERICENTER = 45.2647 MEAN_ANOMALY = 202.4045 EPHEMERIS_TYPE = 0 CLASSIFICATION_TYPE = U NORAD_CAT_ID = 40664 ELEMENT_SET_NO = 999 REV_AT_EPOCH = 4132 BSTAR = 0 MEAN_MOTION_DOT = -.24900E-5 MEAN_MOTION_DDOT = 0 CCSDS_OMM_VERS = 2.0 CREATION_DATE = ORIGINATOR = OBJECT_NAME = INTELSAT 34 (IS-34) OBJECT_ID = 2015-039A CENTER_NAME = EARTH REF_FRAME = TEME TIME_SYSTEM = UTC MEAN_ELEMENT_THEORY = SGP/SGP4 EPOCH = 2026-09-11T23:57:17.027136 MEAN_MOTION = 1.00270229 ECCENTRICITY = .00003332 INCLINATION = 0.0122 RA_OF_ASC_NODE = 154.6115 ARG_OF_PERICENTER = 237.7415 MEAN_ANOMALY = 262.468 EPHEMERIS_TYPE = 0 CLASSIFICATION_TYPE = U NORAD_CAT_ID = 40874 ELEMENT_SET_NO = 999 REV_AT_EPOCH = 4050 BSTAR = 0 MEAN_MOTION_DOT = 0 MEAN_MOTION_DDOT = 0 CCSDS_OMM_VERS = 2.0 CREATION_DATE = ORIGINATOR = OBJECT_NAME = INTELSAT 31 (IS-31) OBJECT_ID = 2016-035A CENTER_NAME = EARTH REF_FRAME = TEME TIME_SYSTEM = UTC MEAN_ELEMENT_THEORY = SGP/SGP4 EPOCH = 2026-09-12T04:53:56.080320 MEAN_MOTION = 1.00273031 ECCENTRICITY = .00016357 INCLINATION = 0.0266 RA_OF_ASC_NODE = 239.6497 ARG_OF_PERICENTER = 68.2702 MEAN_ANOMALY = 21.7385 EPHEMERIS_TYPE = 0 CLASSIFICATION_TYPE = U NORAD_CAT_ID = 41581 ELEMENT_SET_NO = 999 REV_AT_EPOCH = 3755 BSTAR = 0 MEAN_MOTION_DOT = -.16600E-5 MEAN_MOTION_DDOT = 0 CCSDS_OMM_VERS = 2.0 CREATION_DATE = ORIGINATOR = OBJECT_NAME = INTELSAT 36 (IS-36) OBJECT_ID = 2016-053A CENTER_NAME = EARTH REF_FRAME = TEME TIME_SYSTEM = UTC MEAN_ELEMENT_THEORY = SGP/SGP4 EPOCH = 2026-09-12T02:15:18.791136 MEAN_MOTION = 1.0027049 ECCENTRICITY = .00018489 INCLINATION = 0.0165 RA_OF_ASC_NODE = 137.089 ARG_OF_PERICENTER = 215.4906 MEAN_ANOMALY = 100.8566 EPHEMERIS_TYPE = 0 CLASSIFICATION_TYPE = U NORAD_CAT_ID = 41747 ELEMENT_SET_NO = 999 REV_AT_EPOCH = 3682 BSTAR = 0 MEAN_MOTION_DOT = 0 MEAN_MOTION_DDOT = 0 CCSDS_OMM_VERS = 2.0 CREATION_DATE = ORIGINATOR = OBJECT_NAME = INTELSAT 32E (IS-32E) OBJECT_ID = 2017-007B CENTER_NAME = EARTH REF_FRAME = TEME TIME_SYSTEM = UTC MEAN_ELEMENT_THEORY = SGP/SGP4 EPOCH = 2026-09-12T06:51:22.320000 MEAN_MOTION = 1.00273651 ECCENTRICITY = .00004396 INCLINATION = 0.023 RA_OF_ASC_NODE = 241.2185 ARG_OF_PERICENTER = 215.8694 MEAN_ANOMALY = 313.8773 EPHEMERIS_TYPE = 0 CLASSIFICATION_TYPE = U NORAD_CAT_ID = 41945 ELEMENT_SET_NO = 999 REV_AT_EPOCH = 3509 BSTAR = 0 MEAN_MOTION_DOT = -.28300E-5 MEAN_MOTION_DDOT = 0 CCSDS_OMM_VERS = 2.0 CREATION_DATE = ORIGINATOR = OBJECT_NAME = INTELSAT 35E (IS-35E) OBJECT_ID = 2017-041A CENTER_NAME = EARTH REF_FRAME = TEME TIME_SYSTEM = UTC MEAN_ELEMENT_THEORY = SGP/SGP4 EPOCH = 2026-09-12T06:53:52.080576 MEAN_MOTION = 1.00271117 ECCENTRICITY = .00020617 INCLINATION = 0.0214 RA_OF_ASC_NODE = 132.4279 ARG_OF_PERICENTER = 43.7147 MEAN_ANOMALY = 244.1293 EPHEMERIS_TYPE = 0 CLASSIFICATION_TYPE = U NORAD_CAT_ID = 42818 ELEMENT_SET_NO = 999 REV_AT_EPOCH = 3368 BSTAR = 0 MEAN_MOTION_DOT = -.25300E-5 MEAN_MOTION_DDOT = 0 CCSDS_OMM_VERS = 2.0 CREATION_DATE = ORIGINATOR = OBJECT_NAME = INTELSAT 37E (IS-37E) OBJECT_ID = 2017-059A CENTER_NAME = EARTH REF_FRAME = TEME TIME_SYSTEM = UTC MEAN_ELEMENT_THEORY = SGP/SGP4 EPOCH = 2026-09-12T06:58:36.626016 MEAN_MOTION = 1.0027046 ECCENTRICITY = .00026569 INCLINATION = 0.025 RA_OF_ASC_NODE = 152.7439 ARG_OF_PERICENTER = 16.4073 MEAN_ANOMALY = 268.803 EPHEMERIS_TYPE = 0 CLASSIFICATION_TYPE = U NORAD_CAT_ID = 42950 ELEMENT_SET_NO = 999 REV_AT_EPOCH = 3293 BSTAR = 0 MEAN_MOTION_DOT = 0 MEAN_MOTION_DDOT = 0 CCSDS_OMM_VERS = 2.0 CREATION_DATE = ORIGINATOR = OBJECT_NAME = AZERSPACE 2 (IS-38) OBJECT_ID = 2018-074A CENTER_NAME = EARTH REF_FRAME = TEME TIME_SYSTEM = UTC MEAN_ELEMENT_THEORY = SGP/SGP4 EPOCH = 2026-09-12T03:51:17.089344 MEAN_MOTION = 1.00270318 ECCENTRICITY = .00018711 INCLINATION = 0.0225 RA_OF_ASC_NODE = 162.5541 ARG_OF_PERICENTER = 1.0992 MEAN_ANOMALY = 290.4586 EPHEMERIS_TYPE = 0 CLASSIFICATION_TYPE = U NORAD_CAT_ID = 43632 ELEMENT_SET_NO = 999 REV_AT_EPOCH = 2931 BSTAR = 0 MEAN_MOTION_DOT = 0 MEAN_MOTION_DDOT = 0 CCSDS_OMM_VERS = 2.0 CREATION_DATE = ORIGINATOR = OBJECT_NAME = HORIZONS-3E OBJECT_ID = 2018-074B CENTER_NAME = EARTH REF_FRAME = TEME TIME_SYSTEM = UTC MEAN_ELEMENT_THEORY = SGP/SGP4 EPOCH = 2026-09-12T02:44:01.038624 MEAN_MOTION = 1.00269242 ECCENTRICITY = .0000476 INCLINATION = 0.0135 RA_OF_ASC_NODE = 171.3269 ARG_OF_PERICENTER = 27.6804 MEAN_ANOMALY = 2.1227 EPHEMERIS_TYPE = 0 CLASSIFICATION_TYPE = U NORAD_CAT_ID = 43633 ELEMENT_SET_NO = 999 REV_AT_EPOCH = 2921 BSTAR = 0 MEAN_MOTION_DOT = -.46000E-6 MEAN_MOTION_DDOT = 0 CCSDS_OMM_VERS = 2.0 CREATION_DATE = ORIGINATOR = OBJECT_NAME = AT&T T-16 OBJECT_ID = 2019-034A CENTER_NAME = EARTH REF_FRAME = TEME TIME_SYSTEM = UTC MEAN_ELEMENT_THEORY = SGP/SGP4 EPOCH = 2026-09-12T03:09:43.573248 MEAN_MOTION = 1.00272416 ECCENTRICITY = .00005414 INCLINATION = 0.0136 RA_OF_ASC_NODE = 112.7011 ARG_OF_PERICENTER = 300.8744 MEAN_ANOMALY = 244.1466 EPHEMERIS_TYPE = 0 CLASSIFICATION_TYPE = U NORAD_CAT_ID = 44333 ELEMENT_SET_NO = 999 REV_AT_EPOCH = 2650 BSTAR = 0 MEAN_MOTION_DOT = -.13000E-5 MEAN_MOTION_DDOT = 0 CCSDS_OMM_VERS = 2.0 CREATION_DATE = ORIGINATOR = OBJECT_NAME = INTELSAT 39 (IS-39) OBJECT_ID = 2019-049B CENTER_NAME = EARTH REF_FRAME = TEME TIME_SYSTEM = UTC MEAN_ELEMENT_THEORY = SGP/SGP4 EPOCH = 2026-09-12T03:56:09.122208 MEAN_MOTION = 1.00269817 ECCENTRICITY = .0000632 INCLINATION = 0.0227 RA_OF_ASC_NODE = 173.0384 ARG_OF_PERICENTER = 276.0626 MEAN_ANOMALY = 23.0513 EPHEMERIS_TYPE = 0 CLASSIFICATION_TYPE = U NORAD_CAT_ID = 44476 ELEMENT_SET_NO = 999 REV_AT_EPOCH = 2600 BSTAR = 0 MEAN_MOTION_DOT = 0 MEAN_MOTION_DDOT = 0 CCSDS_OMM_VERS = 2.0 CREATION_DATE = ORIGINATOR = OBJECT_NAME = GALAXY 30 (G-30) OBJECT_ID = 2020-056C CENTER_NAME = EARTH REF_FRAME = TEME TIME_SYSTEM = UTC MEAN_ELEMENT_THEORY = SGP/SGP4 EPOCH = 2026-09-12T06:28:02.056800 MEAN_MOTION = 1.00271549 ECCENTRICITY = .00022071 INCLINATION = 0.0228 RA_OF_ASC_NODE = 160.5572 ARG_OF_PERICENTER = 10.2914 MEAN_ANOMALY = 152.4352 EPHEMERIS_TYPE = 0 CLASSIFICATION_TYPE = U NORAD_CAT_ID = 46114 ELEMENT_SET_NO = 999 REV_AT_EPOCH = 2216 BSTAR = 0 MEAN_MOTION_DOT = 0 MEAN_MOTION_DDOT = 0 CCSDS_OMM_VERS = 2.0 CREATION_DATE = ORIGINATOR = OBJECT_NAME = GALAXY 33 (G-33) OBJECT_ID = 2022-128A CENTER_NAME = EARTH REF_FRAME = TEME TIME_SYSTEM = UTC MEAN_ELEMENT_THEORY = SGP/SGP4 EPOCH = 2026-09-12T06:25:47.272800 MEAN_MOTION = 1.00272064 ECCENTRICITY = .00018063 INCLINATION = 0.0151 RA_OF_ASC_NODE = 101.3878 ARG_OF_PERICENTER = 71.5833 MEAN_ANOMALY = 141.7545 EPHEMERIS_TYPE = 0 CLASSIFICATION_TYPE = U NORAD_CAT_ID = 54026 ELEMENT_SET_NO = 999 REV_AT_EPOCH = 1461 BSTAR = 0 MEAN_MOTION_DOT = .64000E-6 MEAN_MOTION_DDOT = 0 CCSDS_OMM_VERS = 2.0 CREATION_DATE = ORIGINATOR = OBJECT_NAME = GALAXY 34 (G-34) OBJECT_ID = 2022-128B CENTER_NAME = EARTH REF_FRAME = TEME TIME_SYSTEM = UTC MEAN_ELEMENT_THEORY = SGP/SGP4 EPOCH = 2026-09-12T01:19:01.688160 MEAN_MOTION = 1.00270786 ECCENTRICITY = .00015851 INCLINATION = 0.0269 RA_OF_ASC_NODE = 149.4956 ARG_OF_PERICENTER = 40.1584 MEAN_ANOMALY = 52.1744 EPHEMERIS_TYPE = 0 CLASSIFICATION_TYPE = U NORAD_CAT_ID = 54027 ELEMENT_SET_NO = 999 REV_AT_EPOCH = 1478 BSTAR = 0 MEAN_MOTION_DOT = 0 MEAN_MOTION_DDOT = 0 CCSDS_OMM_VERS = 2.0 CREATION_DATE = ORIGINATOR = OBJECT_NAME = GALAXY 31 (G-31) OBJECT_ID = 2022-153A CENTER_NAME = EARTH REF_FRAME = TEME TIME_SYSTEM = UTC MEAN_ELEMENT_THEORY = SGP/SGP4 EPOCH = 2026-09-12T06:29:16.937088 MEAN_MOTION = 1.00272242 ECCENTRICITY = .00012389 INCLINATION = 0.0137 RA_OF_ASC_NODE = 127.8418 ARG_OF_PERICENTER = 42.6793 MEAN_ANOMALY = 157.0806 EPHEMERIS_TYPE = 0 CLASSIFICATION_TYPE = U NORAD_CAT_ID = 54243 ELEMENT_SET_NO = 999 REV_AT_EPOCH = 800 BSTAR = 0 MEAN_MOTION_DOT = -.20000E-7 MEAN_MOTION_DDOT = 0 CCSDS_OMM_VERS = 2.0 CREATION_DATE = ORIGINATOR = OBJECT_NAME = GALAXY 32 (G-32) OBJECT_ID = 2022-153B CENTER_NAME = EARTH REF_FRAME = TEME TIME_SYSTEM = UTC MEAN_ELEMENT_THEORY = SGP/SGP4 EPOCH = 2026-09-12T04:55:10.959744 MEAN_MOTION = 1.00272798 ECCENTRICITY = .00003105 INCLINATION = 0.0207 RA_OF_ASC_NODE = 110.9856 ARG_OF_PERICENTER = 308.7359 MEAN_ANOMALY = 274.2947 EPHEMERIS_TYPE = 0 CLASSIFICATION_TYPE = U NORAD_CAT_ID = 54244 ELEMENT_SET_NO = 999 REV_AT_EPOCH = 1401 BSTAR = 0 MEAN_MOTION_DOT = -.18900E-5 MEAN_MOTION_DDOT = 0 CCSDS_OMM_VERS = 2.0 CREATION_DATE = ORIGINATOR = OBJECT_NAME = GALAXY 35 (G-35) OBJECT_ID = 2022-170A CENTER_NAME = EARTH REF_FRAME = TEME TIME_SYSTEM = UTC MEAN_ELEMENT_THEORY = SGP/SGP4 EPOCH = 2026-09-12T06:37:08.683680 MEAN_MOTION = 1.0027281 ECCENTRICITY = .00019217 INCLINATION = 0.0079 RA_OF_ASC_NODE = 142.2261 ARG_OF_PERICENTER = 25.9867 MEAN_ANOMALY = 189.252 EPHEMERIS_TYPE = 0 CLASSIFICATION_TYPE = U NORAD_CAT_ID = 54741 ELEMENT_SET_NO = 999 REV_AT_EPOCH = 1376 BSTAR = 0 MEAN_MOTION_DOT = -.17700E-5 MEAN_MOTION_DDOT = 0 CCSDS_OMM_VERS = 2.0 CREATION_DATE = ORIGINATOR = OBJECT_NAME = GALAXY 36 (G-36) OBJECT_ID = 2022-170B CENTER_NAME = EARTH REF_FRAME = TEME TIME_SYSTEM = UTC MEAN_ELEMENT_THEORY = SGP/SGP4 EPOCH = 2026-09-12T06:38:23.563968 MEAN_MOTION = 1.00272091 ECCENTRICITY = .00020292 INCLINATION = 0.0162 RA_OF_ASC_NODE = 183.7043 ARG_OF_PERICENTER = 301.2269 MEAN_ANOMALY = 236.9591 EPHEMERIS_TYPE = 0 CLASSIFICATION_TYPE = U NORAD_CAT_ID = 54742 ELEMENT_SET_NO = 999 REV_AT_EPOCH = 1365 BSTAR = 0 MEAN_MOTION_DOT = -.20000E-5 MEAN_MOTION_DDOT = 0 CCSDS_OMM_VERS = 2.0 CREATION_DATE = ORIGINATOR = OBJECT_NAME = GALAXY 37 (G-37) OBJECT_ID = 2023-112A CENTER_NAME = EARTH REF_FRAME = TEME TIME_SYSTEM = UTC MEAN_ELEMENT_THEORY = SGP/SGP4 EPOCH = 2026-09-12T06:27:32.105376 MEAN_MOTION = 1.0027053 ECCENTRICITY = .00020025 INCLINATION = 0.023 RA_OF_ASC_NODE = 172.1588 ARG_OF_PERICENTER = 6.1002 MEAN_ANOMALY = 142.8963 EPHEMERIS_TYPE = 0 CLASSIFICATION_TYPE = U NORAD_CAT_ID = 57493 ELEMENT_SET_NO = 999 REV_AT_EPOCH = 1141 BSTAR = 0 MEAN_MOTION_DOT = 0 MEAN_MOTION_DDOT = 0